User: anonymous   Login
Location: Unspecified
(0.0000°N, 0.0000°E)
Time: 23:57:38
(UTC+00:00)
Language:

N. Korean satellite - Orbit

View from above orbital plane
View from above orbital plane
View from above satellite
View from above satellite

Ground track
Ground track

The orbit data is extracted from the following two-line orbital elements,

1 39026U 12072A   16343.13801752  .00001927  00000-0  78954-4 0  9992
2 39026  97.2360   1.4998 0042737 131.5412 228.9504 15.24637086220871
Epoch (UTC): 08 December 2016 03:18:44
Eccentricity: 0.0042737
inclination: 97.2360°
perigee height: 462 km
apogee height: 521 km
right ascension of ascending node: 1.4998°
argument of perigee: 131.5412°
revolutions per day: 15.24637086
mean anomaly at epoch: 228.9504°
orbit number at epoch: 22087

The dashed part of the orbit path shows where the satellite is in the earth's shadow,  

DLR